Retour au catalogue

SL-14 DEB

ActifPO
NORAD 19178·DEBRIS·🇷🇺 Russia

Lancé Oct 26, 1978 depuis Plesetsk Cosmodrome

Loading…

Prochains Passages (prochaines 24 heures)

TLE

FraisSource: Space-Track

Époque: Sep 13, 2026, 07:46 UTC

1 19178U 78100U   26256.32369466 -.00000084  00000-0 -91998-3 0  9995
2 19178  82.1164   4.1543 0036863 209.5637 176.2329 12.17903252696637

Suivez SL-14 DEB en temps réel avec AllMySat

Download on the App Store